• In Denmark
  • List of Countries
  • For 7 days
  • Water Temperature
  • Satellite Maps
  • Weather Map
  • Weather Widgets
  • user-avatar
    Login

    Hourly Weather Holguin

    Today, 26 February, Monday

    Time Temperature Precipitation Wind Pressure Humidity
    00:00 +23°C° 0 mm 4 mps 752 mmHg 81%
    01:00 +22°C° 0 mm 4 mps 751 mmHg 82%
    02:00 +22°C° 0 mm 4 mps 751 mmHg 83%
    03:00 +22°C° 0 mm 3 mps 751 mmHg 84%
    04:00 +22°C° 0 mm 3 mps 751 mmHg 85%
    05:00 +22°C° 0 mm 3 mps 751 mmHg 85%
    06:00 +22°C° 0 mm 3 mps 751 mmHg 85%
    07:00 +22°C° 0 mm 3 mps 752 mmHg 86%
    08:00 +25°C° 0 mm 4 mps 752 mmHg 75%
    09:00 +27°C° 0 mm 5 mps 752 mmHg 65%
    10:00 +29°C° 0 mm 6 mps 752 mmHg 55%
    11:00 +30°C° 0 mm 6 mps 752 mmHg 52%
    12:00 +32°C° 0 mm 6 mps 752 mmHg 48%
    13:00 +33°C° 0 mm 6 mps 752 mmHg 45%
    14:00 +32°C° 0 mm 6 mps 751 mmHg 47%
    15:00 +32°C° 0 mm 7 mps 751 mmHg 49%
    16:00 +30°C° 0 mm 7 mps 750 mmHg 51%
    17:00 +28°C° 0 mm 6 mps 751 mmHg 58%
    18:00 +27°C° 0 mm 6 mps 751 mmHg 65%
    19:00 +25°C° 0 mm 5 mps 751 mmHg 72%
    20:00 +25°C° 0 mm 5 mps 751 mmHg 74%
    21:00 +25°C° 0 mm 4 mps 751 mmHg 77%
    22:00 +23°C° 0 mm 4 mps 752 mmHg 80%
    23:00 +23°C° 0 mm 4 mps 752 mmHg 82%

    Tomorrow, 27 February, Tuesday

    Time Temperature Precipitation Wind Pressure Humidity
    00:00 +22°C° 0 mm 4 mps 751 mmHg 83%
    01:00 +22°C° 0 mm 3 mps 751 mmHg 85%
    02:00 +22°C° 0.1 mm 3 mps 751 mmHg 86%
    03:00 +22°C° 0.1 mm 3 mps 751 mmHg 87%
    04:00 +21°C° 0.1 mm 3 mps 750 mmHg 88%
    05:00 +21°C° 0 mm 3 mps 751 mmHg 87%
    06:00 +22°C° 0 mm 3 mps 751 mmHg 86%
    07:00 +22°C° 0 mm 4 mps 751 mmHg 86%
    08:00 +23°C° 0 mm 4 mps 752 mmHg 76%
    09:00 +26°C° 0 mm 5 mps 752 mmHg 65%
    10:00 +28°C° 0 mm 6 mps 752 mmHg 55%
    11:00 +29°C° 0 mm 6 mps 752 mmHg 54%
    12:00 +29°C° 0 mm 6 mps 751 mmHg 52%
    13:00 +30°C° 0 mm 6 mps 751 mmHg 51%
    14:00 +30°C° 0.1 mm 7 mps 751 mmHg 53%
    15:00 +29°C° 0.1 mm 7 mps 750 mmHg 56%
    16:00 +29°C° 0.1 mm 7 mps 750 mmHg 58%
    17:00 +27°C° 0.1 mm 7 mps 750 mmHg 64%
    18:00 +26°C° 0.1 mm 6 mps 750 mmHg 70%
    19:00 +24°C° 0.1 mm 6 mps 750 mmHg 76%
    20:00 +23°C° 0 mm 5 mps 751 mmHg 77%
    21:00 +23°C° 0 mm 5 mps 751 mmHg 78%
    22:00 +22°C° 0 mm 4 mps 751 mmHg 79%
    23:00 +22°C° 0 mm 4 mps 751 mmHg 81%

    Day after tomorrow, 28 February, Wednesday

    Time Temperature Precipitation Wind Pressure Humidity
    00:00 +21°C° 0 mm 4 mps 751 mmHg 83%
    01:00 +21°C° 0 mm 4 mps 751 mmHg 85%
    02:00 +20°C° 0 mm 3 mps 750 mmHg 85%
    03:00 +20°C° 0 mm 3 mps 750 mmHg 86%
    04:00 +20°C° 0 mm 3 mps 749 mmHg 86%
    05:00 +20°C° 0 mm 3 mps 749 mmHg 86%
    06:00 +20°C° 0 mm 3 mps 750 mmHg 86%
    07:00 +20°C° 0 mm 3 mps 750 mmHg 85%
    08:00 +22°C° 0 mm 4 mps 750 mmHg 75%
    09:00 +26°C° 0 mm 5 mps 751 mmHg 64%
    10:00 +28°C° 0 mm 5 mps 751 mmHg 54%
    11:00 +29°C° 0 mm 6 mps 751 mmHg 50%
    12:00 +30°C° 0 mm 6 mps 750 mmHg 46%
    13:00 +32°C° 0 mm 6 mps 750 mmHg 43%
    14:00 +30°C° 0 mm 6 mps 749 mmHg 44%
    15:00 +30°C° 0 mm 6 mps 749 mmHg 46%
    16:00 +29°C° 0 mm 6 mps 748 mmHg 47%
    17:00 +27°C° 0 mm 5 mps 749 mmHg 54%
    18:00 +26°C° 0 mm 5 mps 749 mmHg 62%
    19:00 +23°C° 0 mm 4 mps 749 mmHg 69%
    20:00 +22°C° 0 mm 4 mps 750 mmHg 72%
    21:00 +22°C° 0 mm 4 mps 750 mmHg 75%
    22:00 +21°C° 0 mm 3 mps 750 mmHg 77%
    23:00 +21°C° 0 mm 3 mps 750 mmHg 79%

    1 March, Thursday

    Time Temperature Precipitation Wind Pressure Humidity
    00:00 +21°C° 0 mm 3 mps 750 mmHg 81%
    01:00 +20°C° 0 mm 3 mps 749 mmHg 83%
    02:00 +20°C° 0 mm 3 mps 749 mmHg 85%
    03:00 +20°C° 0 mm 2 mps 748 mmHg 86%
    04:00 +19°C° 0 mm 2 mps 748 mmHg 88%
    05:00 +20°C° 0 mm 2 mps 748 mmHg 87%
    06:00 +20°C° 0 mm 2 mps 749 mmHg 86%
    07:00 +20°C° 0 mm 2 mps 749 mmHg 85%
    08:00 +22°C° 0 mm 3 mps 750 mmHg 73%
    09:00 +26°C° 0 mm 3 mps 750 mmHg 60%
    10:00 +29°C° 0 mm 4 mps 750 mmHg 48%
    11:00 +30°C° 0 mm 4 mps 750 mmHg 43%
    12:00 +31°C° 0 mm 3 mps 750 mmHg 37%
    13:00 +34°C° 0 mm 3 mps 749 mmHg 32%
    14:00 +33°C° 0 mm 3 mps 749 mmHg 34%
    15:00 +33°C° 0 mm 4 mps 748 mmHg 37%
    16:00 +33°C° 0 mm 4 mps 748 mmHg 39%
    17:00 +30°C° 0 mm 4 mps 748 mmHg 49%
    18:00 +27°C° 0 mm 4 mps 749 mmHg 59%
    19:00 +25°C° 0 mm 4 mps 749 mmHg 69%
    20:00 +25°C° 0 mm 3 mps 749 mmHg 72%
    21:00 +24°C° 0 mm 3 mps 750 mmHg 75%
    22:00 +23°C° 0 mm 2 mps 750 mmHg 78%
    23:00 +23°C° 0 mm 2 mps 750 mmHg 79%

    2 March, Friday

    Time Temperature Precipitation Wind Pressure Humidity
    00:00 +23°C° 0 mm 2 mps 750 mmHg 80%
    01:00 +23°C° 0 mm 2 mps 749 mmHg 81%
    02:00 +22°C° 0 mm 1 mps 749 mmHg 81%
    03:00 +22°C° 0 mm 1 mps 749 mmHg 82%
    04:00 +21°C° 0 mm 1 mps 749 mmHg 83%
    05:00 +21°C° 0 mm 1 mps 749 mmHg 82%
    06:00 +21°C° 0 mm 1 mps 749 mmHg 81%
    07:00 +22°C° 0 mm 1 mps 749 mmHg 80%
    08:00 +24°C° 0 mm 1 mps 750 mmHg 69%
    09:00 +27°C° 0 mm 1 mps 750 mmHg 59%
    10:00 +29°C° 0 mm 1 mps 750 mmHg 48%
    11:00 +31°C° 0 mm 2 mps 750 mmHg 43%
    12:00 +32°C° 0 mm 2 mps 749 mmHg 37%
    13:00 +34°C° 0 mm 3 mps 749 mmHg 31%
    14:00 +34°C° 0 mm 3 mps 748 mmHg 32%
    15:00 +34°C° 0 mm 4 mps 748 mmHg 33%
    16:00 +34°C° 0 mm 4 mps 747 mmHg 34%
    17:00 +30°C° 0 mm 4 mps 748 mmHg 44%
    18:00 +28°C° 0 mm 4 mps 748 mmHg 54%
    19:00 +26°C° 0 mm 4 mps 748 mmHg 64%
    20:00 +25°C° 0 mm 3 mps 748 mmHg 70%
    21:00 +24°C° 0 mm 2 mps 748 mmHg 75%
    22:00 +24°C° 0 mm 2 mps 748 mmHg 80%
    23:00 +23°C° 0 mm 1 mps 748 mmHg 82%

    3 March, Saturday

    Time Temperature Precipitation Wind Pressure Humidity
    00:00 +23°C° 0 mm 1 mps 748 mmHg 84%
    01:00 +23°C° 0 mm 1 mps 748 mmHg 85%
    02:00 +23°C° 0 mm 1 mps 747 mmHg 87%
    03:00 +22°C° 0 mm 1 mps 747 mmHg 88%
    04:00 +21°C° 0 mm 2 mps 747 mmHg 90%
    05:00 +21°C° 0 mm 2 mps 747 mmHg 89%
    06:00 +21°C° 0 mm 2 mps 747 mmHg 88%
    07:00 +23°C° 0 mm 2 mps 748 mmHg 87%
    08:00 +24°C° 0.1 mm 2 mps 748 mmHg 79%
    09:00 +26°C° 0.1 mm 3 mps 748 mmHg 70%
    10:00 +28°C° 0.1 mm 3 mps 748 mmHg 62%
    11:00 +28°C° 0.1 mm 4 mps 748 mmHg 60%
    12:00 +28°C° 0.1 mm 4 mps 748 mmHg 59%
    13:00 +29°C° 0.1 mm 5 mps 747 mmHg 58%
    14:00 +29°C° 0 mm 5 mps 747 mmHg 57%
    15:00 +28°C° 0 mm 5 mps 746 mmHg 55%
    16:00 +28°C° 0 mm 5 mps 746 mmHg 54%
    17:00 +27°C° 0 mm 5 mps 746 mmHg 57%
    18:00 +25°C° 0 mm 4 mps 747 mmHg 60%
    19:00 +23°C° 0 mm 4 mps 747 mmHg 62%
    20:00 +22°C° 0 mm 4 mps 747 mmHg 66%
    21:00 +21°C° 0 mm 3 mps 747 mmHg 69%
    22:00 +20°C° 0 mm 3 mps 747 mmHg 73%
    23:00 +20°C° 0 mm 3 mps 747 mmHg 74%
    Show more